Weather History for Iowa City, IA

Change the Weather History Date:

Friday, March 7, 2014

  Actual Average Record
Temperature  
Mean Temperature 30 °F 34 °F  
Max Temperature 44 °F 43 °F 75 °F (1987)
Min Temperature 16 °F 25 °F -8 °F (1960)
Degree Days  
Heating Degree Days 35 31  
Month to date heating degree days 351 226  
Since 1 July heating degree days 6144 5176  
Cooling Degree Days 0 0  
Month to date cooling degree days 0 0  
Year to date cooling degree days 0 0  
Moisture  
Dew Point 26 °F    
Average Humidity 76    
Maximum Humidity 91    
Minimum Humidity 60    
Precipitation  
Precipitation 0.00 in 0.07 in 1.23 in (2009)
Month to date precipitation 0.15 0.51  
Year to date precipitation 1.98 2.67  
Sea Level Pressure  
Sea Level Pressure 29.99 in    
Wind  
Wind Speed 8 mph (WNW)    
Max Wind Speed 15 mph    
Max Gust Speed 19 mph    
Visibility 4 miles    
Events      
T = Trace of Precipitation, MM = Missing Value Source: NWS Daily Summary

Daily Weather History Graph

Daily Weather History Graph

Search for Another Location

Airport:

Trip Planner

Search our weather history database for the weather conditions in past years. The results will help you decide how hot, cold, wet, or windy it might be!

Date:

Astronomy

Mar. 07, 2014 Rise Set
Actual Time 6:31 AM CST 6:03 PM CST
Civil Twilight 6:03 AM CST 6:31 PM CST
Nautical Twilight 5:31 AM CST 7:03 PM CST
Astronomical Twilight 4:59 AM CST 7:35 PM CST
Moon 10:19 AM CST (3/7) 12:13 AM CST (3/7)
Length of Visible Light 12h 27m
Length of Day
11h 32m
Waxing Crescent, 42% of the Moon is Illuminated
Mar 7
Waxing Crescent
Mar 8
First Quarter
Mar 16
Full
Mar 23
Last Quarter
Mar 30
New

Hourly Weather History & Observations

Time (CST) Temp. Windchill Dew Point Humidity Pressure Visibility Wind Dir Wind Speed Gust Speed Precip Events Conditions
12:52 AM 19.9 °F 14.9 °F 15.1 °F 81% 30.04 in 6.0 mi SE 3.5 mph - N/A   Haze
1:52 AM 19.9 °F 13.4 °F 16.0 °F 85% 30.02 in 5.0 mi ESE 4.6 mph - N/A   Clear
2:52 AM 17.1 °F 11.7 °F 14.0 °F 88% 30.00 in 4.0 mi SE 3.5 mph - N/A   Clear
3:52 AM 19.9 °F - 16.0 °F 85% 29.98 in 4.0 mi Calm Calm - N/A   Clear
4:52 AM 19.0 °F - 16.0 °F 88% 29.97 in 3.0 mi Calm Calm - N/A   Clear
5:52 AM 19.9 °F 13.4 °F 17.1 °F 89% 29.95 in 4.0 mi SE 4.6 mph - N/A   Clear
6:52 AM 19.9 °F 14.9 °F 17.1 °F 89% 29.96 in 2.5 mi SE 3.5 mph - N/A   Clear
7:18 AM 21.9 °F - 19.0 °F 89% 29.93 in 3.0 mi Calm Calm - N/A   Clear
7:52 AM 24.1 °F 19.7 °F 21.0 °F 88% 29.95 in 3.0 mi SE 3.5 mph - N/A   Clear
8:52 AM 33.1 °F 25.5 °F 24.1 °F 70% 29.95 in 5.0 mi South 9.2 mph - N/A   Haze
9:52 AM 37.0 °F 31.0 °F 26.1 °F 65% 29.94 in 6.0 mi SSW 8.1 mph - N/A   Haze
10:52 AM 41.0 °F 36.4 °F 28.9 °F 62% 29.92 in 8.0 mi SSW 6.9 mph - N/A   Clear
11:52 AM 42.1 °F 37.7 °F 30.0 °F 62% 29.91 in 8.0 mi SW 6.9 mph - N/A   Clear
12:52 PM 43.0 °F 38.8 °F 30.9 °F 62% 29.90 in 8.0 mi SW 6.9 mph - N/A   Clear
1:52 PM 43.0 °F 38.8 °F 32.0 °F 65% 29.90 in 8.0 mi WSW 6.9 mph - N/A   Partly Cloudy
2:52 PM 43.0 °F 36.8 °F 34.0 °F 71% 29.91 in 6.0 mi WNW 11.5 mph - N/A   Haze
3:52 PM 42.1 °F 35.7 °F 34.0 °F 73% 29.93 in 5.0 mi West 11.5 mph - N/A   Haze
4:52 PM 39.0 °F 31.8 °F 32.0 °F 76% 29.95 in 4.0 mi NW 11.5 mph - N/A   Haze
5:52 PM 37.0 °F 28.9 °F 30.9 °F 79% 29.97 in 3.0 mi NW 12.7 mph - N/A   Haze
6:49 PM 35.6 °F 29.2 °F 30.2 °F 81% 29.98 in 4.0 mi NNW 8.1 mph - N/A   Haze
6:52 PM 36.0 °F 29.6 °F 30.9 °F 82% 30.01 in 4.0 mi NNW 8.1 mph - N/A   Haze
7:07 PM 36.0 °F 28.5 °F 30.9 °F 82% 29.99 in 4.0 mi NNW 10.4 mph - N/A   Haze
7:52 PM 35.1 °F 26.4 °F 30.9 °F 85% 30.04 in 4.0 mi NNW 12.7 mph - N/A   Mostly Cloudy
8:33 PM 35.1 °F 27.4 °F 30.9 °F 85% 30.02 in 3.0 mi NW 10.4 mph - N/A   Overcast
8:52 PM 34.0 °F 26.0 °F 30.9 °F 89% 30.05 in 3.0 mi NNW 10.4 mph - N/A   Overcast
9:30 PM 34.0 °F 26.0 °F 30.0 °F 85% 30.04 in 4.0 mi NW 10.4 mph - N/A   Overcast
9:52 PM 33.1 °F 23.9 °F 28.9 °F 85% 30.06 in 4.0 mi NW 12.7 mph - N/A   Mostly Cloudy
10:04 PM 33.1 °F 23.4 °F 28.9 °F 85% 30.04 in 4.0 mi NW 13.8 mph - N/A   Mostly Cloudy
10:24 PM 33.1 °F 24.4 °F 28.9 °F 85% 30.05 in 4.0 mi NW 11.5 mph - N/A   Overcast
10:52 PM 33.1 °F 24.4 °F 28.9 °F 85% 30.08 in 4.0 mi NW 11.5 mph - N/A   Overcast
11:00 PM 33.1 °F 24.4 °F 28.9 °F 85% 30.07 in 4.0 mi NW 11.5 mph - N/A   Overcast
11:30 PM 33.1 °F 23.9 °F 28.9 °F 85% 30.06 in 4.0 mi NW 12.7 mph - N/A   Overcast
11:52 PM 33.1 °F 25.5 °F 28.9 °F 85% 30.08 in 4.0 mi NNW 9.2 mph - N/A   Overcast
11:59 PM 33.1 °F 24.9 °F 28.9 °F 85% 30.06 in 4.0 mi NW 10.4 mph - N/A   Overcast